Location: Unspecified
(43.8044°N, 11.0278°E)
Time: 04:14:37
(UTC+02:00)

Cosmos 1674 - Visible Passes

Search period start: 28 August 2015 00:00
Search period end: 07 September 2015 00:00
Orbit: 506 x 529 km, 82.5° (Epoch: 26 August)

Date Brightness Start Highest point End Pass type
(mag) Time Alt. Az. Time Alt. Az. Time Alt. Az.
01 Sep 6.2 00:35:05 10° N 00:35:05 10° N 00:35:05 10° N visible
02 Sep 6.1 00:20:47 10° N 00:20:48 10° N 00:20:48 10° N visible
03 Sep 6.1 00:06:29 10° N 00:06:31 10° N 00:06:31 10° N visible
03 Sep 6.0 23:52:12 10° N 23:52:14 10° N 23:52:14 10° N visible
04 Sep 6.0 23:37:56 10° N 23:37:58 10° N 23:37:58 10° N visible
